LEMUR-2-SQUIRRELCOMM (60578 NORAD) Tracking and Keplerian Element Data

This shows tracking and keplerian element data for the satellite.

Feedback or suggestion? Click here.




ElementValue
Catalog60578
NameLEMUR-2-SQUIRRELCOMM
Epoch Orbit848
Epoch Day286.72560022
Epoch Year2024
RAAN1.3086
Inclination97.739
Eccentricity0.0005098
Argument of Perigee299.977
Mean Anonmoly60.0944
Mean Motion14.94403317
Decay Rate0.00016806
L11 60578U 24149DQ 24286.72560022 .00016806 00000+0 15625-2 0 9993
L22 60578 97.7390 1.3086 0005098 299.9770 60.0944 14.94403317 8485



Live tracking and technical data element details for LEMUR-2-SQUIRRELCOMM (NORAD 60578). LEMUR-2-SQUIRRELCOMM can be tracked NOW for your location showing map with azimuth and elevation plus other details from your city location.







IsCatalogInMostPopularTable: catalog: 60578, numindb: 4
Update: records affected: 1



GetName: 60578 LEMUR-2-SQUIRRELCOMM

Hit Count: updated at: Wed, 04 Dec 2024 19:33:34 GMT